Flag Weather past 2 weeks in Cottbus, Brandenburg, Germany

Now
40 °F

Fog.


Feels Like: 36 °F
Forecast: 37 / 44 °F
Wind: 6 mph from Southeast

Location: Lindenberg

Current Time: Nov 24, 2014 at 1:30:38 AM

Latest Report: Nov 24, 2014 at 1:00 AM


Visibility: 3 mi

Pressure: 30.16 "Hg

Humidity: 92%

Dew point: 37 °F

Location of CottbusLocation

Historic Weather in Cottbus — Graph

°F

Cottbus temperature yesterday

Maximum temperature yesterday: 46 °F (at 3:00 PM)
Minimum temperature yesterday: 35 °F (at 7:00 AM)
Average temperature yesterday: 40 °F

Past Weeks' High & Low Weather Summary

 TemperatureHumidityPressure
High55 °F (Nov 11, 2:00 PM)100% (Nov 9, 11:00 PM)30.35 "Hg (Nov 9, 11:00 PM)
Low35 °F (Nov 23, 7:00 AM)76% (Nov 17, 2:00 PM)29.59 "Hg (Nov 16, 12:00 PM)
Average45 °F93%29.98 "Hg
* Reported Midnight between Nov 8 and Nov 9 — Midnight between Nov 23 and Nov 24, Cottbus, Weather by CustomWeather, © 2014

Note: Actual official high and low records may vary slightly from our data, if they occured in-between our weather recording intervals... More about our weather records

Advertising

Cottbus weather history for previous 24 hours

 ConditionsComfort  
Time TempWeatherWind HumidityBarometerVisibility
12:00 AM
Nov 24
40 °FFog.6 mph89%30.18 "Hg3 mi
11:00 PM
Nov 23
41 °FFog.5 mph89%30.19 "Hg4 mi
9:00 PM42 °FFog.5 mph87%30.20 "Hg4 mi
8:00 PM42 °FFog.5 mph87%30.22 "Hg4 mi
7:00 PM42 °FFog.6 mph84%30.22 "Hg4 mi
6:00 PM43 °FFog.5 mph84%30.22 "Hg4 mi
5:00 PM44 °FFog.6 mph84%30.23 "Hg4 mi
3:00 PM46 °FPassing clouds.5 mph77%30.24 "Hg5 mi
2:00 PM46 °FPassing clouds.5 mph78%30.25 "Hg5 mi
1:00 PM45 °FPassing clouds.3 mph79%30.26 "Hg5 mi
12:00 PM44 °FScattered clouds.5 mph79%30.27 "Hg5 mi
11:00 AM42 °FScattered clouds.3 mph82%30.29 "Hg5 mi
10:00 AM38 °FPartly sunny.3 mph91%30.29 "Hg2 mi
9:00 AM37 °FFog.3 mph92%30.29 "Hg2 mi
8:00 AM36 °FFog.5 mph95%30.27 "Hg2 mi
7:00 AM35 °FFog.5 mph95%30.27 "Hg3 mi
6:00 AM36 °FFog.5 mph95%30.26 "Hg3 mi
5:00 AM36 °FFog.3 mph94%30.26 "Hg3 mi
3:00 AM36 °FFog.5 mph93%30.26 "Hg3 mi
2:00 AM37 °FFog.5 mph92%30.27 "Hg4 mi
1:00 AM37 °FFog.3 mph92%30.27 "Hg4 mi
Weather by CustomWeather, © 2014

See weather overviewHow to use our weather pages